sat.trackr.live / text

‹ back to catalog

STARLINK-36647

NORAD 67824 · 2026-033D

PAYLOAD ACTIVE UNKNOWN

§ Identity

Operator
Country
US
Launch date
2026-02-16
Launch site
AFETR
Launch vehicle
Mass (kg)
RCS (m²)

Purposes: comms

External: N2YO · Heavens-Above · Gunter

§ Orbital elements

Epoch: 2026-05-25T04:18:45.520128Z

Period
94.27 min
Inclination
43.0000°
Eccentricity
0.0001075
Mean motion
15.27586500 rev/d
Perigee alt
482.3 km
Apogee alt
483.8 km
Semi-major
6,861.2 km
B*
4.4190e-4
RAAN
194.9578°
Arg perigee
280.2291°
Mean anomaly
79.8439°
Rev number
1,637

§ Raw data

STARLINK-366471 67824U 26033D   26145.17969352  .00011920  00000+0  44190-3 0  99942 67824  43.0000 194.9578 0001075 280.2291  79.8439 15.27586500 16372

JSON: /api/v1/satellites/67824 · /tle

For live sub-satellite position, see the globe view (requires WebGL).

§ Visibility from observer

Set your observer location to see the next 7 days of passes ≥ 10°. The values pass through the URL so the page stays shareable.

No JS? Fill the form by hand. The geolocation button needs JavaScript.